SR5NLK-1 Weather Reports


time (UTC)temp
C
wind
direction
speed
KPH
gust
KPH
rain 1hr
cm
rain 24hr
cm
rain mn
cm
humidity
%
barometer
mb
20260503022005 10 202 3.2 4.8 0.00 0.00 0.00 61 1081.5
20260503021514 10 202 3.2 6.4 0.00 0.00 0.00 61 1605.0
20260503021505 10 202 3.2 6.4 0.00 0.00 0.00 61 1050.2
20260503021005 10 202 6.4 6.4 0.00 0.00 0.00 61 1039.3
20260503020954 10 225 3.2 3.2 0.00 0.00 0.00 60 1039.3
20260503020005 10 225 3.2 3.2 0.00 0.00 0.00 60 1044.7
20260503015704 10 180 0.0 3.2 0.00 0.00 0.00 60 1089.0
20260503015505 10 202 1.6 6.4 0.00 0.00 0.00 60 1087.8
20260503015005 10 202 6.4 6.4 0.00 0.00 0.00 60 956.4
20260503014505 10 180 1.6 6.4 0.00 0.00 0.00 61 1085.5
20260503014011 -15 225 3.2 8.0 0.00 0.00 0.00 61
20260503014005 10 225 3.2 8.0 0.00 0.00 0.00 61 1007.7
20260503013505 10 202 4.8 8.0 0.00 0.00 0.00 61 1062.6
20260503013005 10 202 4.8 6.4 0.00 0.00 0.00 61 1043.9
20260503012505 10 225 6.4 8.0 0.00 0.00 0.00 61 1053.0
20260503012404 10 202 4.8 8.0 0.00 0.00 0.00 61 1078.9
20260503012005 10 202 4.8 9.7 0.00 0.00 0.00 61 1030.9
20260503011511 10 202 3.2 3.2 0.00 0.00 0.00 1042.4
20260503011505 10 202 3.2 3.2 0.00 0.00 0.00 61 1042.4
20260503011005 10 202 1.6 3.2 0.00 0.00 0.00 61 997.7
20260503010505 10 225 1.6 3.2 0.00 0.00 0.00 61 1045.4
20260503010005 10 225 3.2 4.8 0.00 0.00 0.00 61 1055.9
20260503005505 10 225 4.8 4.8 0.00 0.00 0.00 62 1078.6
20260503005104 10 247 1.6 3.2 0.00 0.00 0.00 62 995.1
20260503005005 10 225 3.2 3.2 0.00 0.00 0.00 62 1040.6
20260503004505 10 247 0.0 3.2 0.00 0.00 0.00 61 1066.6
20260503004005 10 247 3.2 3.2 0.00 0.00 0.00 61 1049.1
20260503003505 10 270 0.0 1.6 0.00 0.00 0.00 60 996.3
20260503003005 10 270 0.0 1.6 0.00 0.00 0.00 60 1006.1
20260503002505 10 270 0.0 1.6 0.00 0.00 0.00 59 1084.7
20260503002005 11 225 0.0 1.6 0.00 0.00 0.00 58 1036.6
20260503001804 11 247 0.0 1.6 0.00 0.00 0.00 57 1048.4
20260503001505 11 270 0.0 1.6 0.00 0.00 0.00 57 1044.0
20260503001005 11 247 0.0 0.0 0.00 0.00 0.00 56 1001.1
20260503000505 11 225 0.0 0.0 0.00 0.00 0.00 55 1081.5
20260503000005 11 225 0.0 1.6 0.00 0.00 0.00 55 1035.9
20260502235505 12 225 0.0 1.6 0.00 0.00 0.00 55 1005.5
20260502235005 12 202 0.0 4.8 0.00 0.00 0.00 55 997.9
20260502234504 12 202 4.8 4.8 0.00 0.00 0.00 55 1044.4
20260502234005 12 180 4.8 6.4 0.00 0.00 0.00 55 1049.1
20260502233505 11 180 4.8 8.0 0.00 0.00 0.00 56 1010.3
20260502233005 11 225 8.0 9.7 0.00 0.00 0.00 56 1072.1
20260502232505 11 202 6.4 8.0 0.00 0.00 0.00 55 1042.8
20260502232005 11 157 0.0 1.6 0.00 0.00 0.00 55 1082.0
20260502231505 11 225 1.6 1.6 0.00 0.00 0.00 54 961.3
20260502231204 11 180 0.0 1.6 0.00 0.00 0.00 54 963.9
20260502231005 11 180 0.0 1.6 0.00 0.00 0.00 54 1054.2
20260502230505 11 157 0.0 1.6 0.00 0.00 0.00 54 962.1
20260502230005 12 157 0.0 0.0 0.00 0.00 0.00 53 1063.5
20260502225505 12 157 0.0 0.0 0.00 0.00 0.00 53 1042.8
20260502225005 12 180 0.0 0.0 0.00 0.00 0.00 52 1019.5
20260502224505 12 157 0.0 1.6 0.00 0.00 0.00 52 1056.4
20260502224005 12 247 0.0 3.2 0.00 0.00 0.00 51 1076.5
20260502223904 12 202 0.0 3.2 0.00 0.00 0.00 51 1082.8
20260502223505 12 157 0.0 1.6 0.00 0.00 0.00 51 1089.5
20260502223005 12 180 0.0 1.6 0.00 0.00 0.00 51 1072.1
20260502222505 12 270 0.0 0.0 0.00 0.00 0.00 50 998.5
20260502222005 13 180 0.0 1.6 0.00 0.00 0.00 50 1018.5
20260502221505 13 202 1.6 1.6 0.00 0.00 0.00 49 1013.3
20260502221005 13 225 0.0 3.2 0.00 0.00 0.00 48 1003.3
20260502220604 13 202 3.2 3.2 0.00 0.00 0.00 48 958.2
20260502220505 13 202 3.2 3.2 0.00 0.00 0.00 47 1039.7
20260502220005 13 225 3.2 3.2 0.00 0.00 0.00 47 1045.7
20260502215505 13 202 0.0 3.2 0.00 0.00 0.00 46 1053.3
20260502215005 14 225 1.6 4.8 0.00 0.00 0.00 46 1015.2
20260502214505 14 202 1.6 4.8 0.00 0.00 0.00 45 1050.1
20260502214005 14 202 3.2 6.4 0.00 0.00 0.00 45 1097.2
20260502213505 14 202 3.2 8.0 0.00 0.00 0.00 45 1052.2
20260502213304 14 202 6.4 8.0 0.00 0.00 0.00 45 1081.5
20260502213005 14 202 3.2 6.4 0.00 0.00 0.00 45 1013.5
20260502212506 14 180 3.2 6.4 0.00 0.00 0.00 45 1039.7
20260502212005 14 202 6.4 6.4 0.00 0.00 0.00 44 1033.4
20260502211505 15 202 1.6 3.2 0.00 0.00 0.00 44 1044.9
20260502211005 15 202 1.6 3.2 0.00 0.00 0.00 43 1087.8
20260502210505 15 180 3.2 4.8 0.00 0.00 0.00 43 1091.6
20260502210004 15 202 3.2 8.0 0.00 0.00 0.00 43 1049.0
20260502205505 15 180 6.4 9.7 0.00 0.00 0.00 43 1072.1
20260502205005 15 202 4.8 4.8 0.00 0.00 0.00 43 994.5
20260502204505 15 202 4.8 4.8 0.00 0.00 0.00 43 1013.1
20260502204005 15 202 3.2 6.4 0.00 0.00 0.00 42 1057.0
20260502203505 15 180 0.0 3.2 0.00 0.00 0.00 42 1100.3
20260502203005 15 225 3.2 6.4 0.00 0.00 0.00 42 1055.4
20260502202704 15 202 3.2 3.2 0.00 0.00 0.00 41 1100.3
20260502202505 15 180 1.6 3.2 0.00 0.00 0.00 41 1072.2
20260502202005 16 202 3.2 3.2 0.00 0.00 0.00 41 962.3
20260502201505 16 202 1.6 3.2 0.00 0.00 0.00 40 1001.0
20260502201005 16 157 3.2 4.8 0.00 0.00 0.00 40 1046.0
20260502200506 16 202 1.6 4.8 0.00 0.00 0.00 40 1087.8
20260502200005 16 202 4.8 6.4 0.00 0.00 0.00 40 1006.8
20260502195513 16 202 1.6 4.8 0.00 0.00 0.00 40 1075.2
20260502195505 16 202 1.6 4.8 0.00 0.00 0.00 40 1075.2
20260502195404 16 202 4.8 4.8 0.00 0.00 0.00 40 1039.6
20260502195005 16 202 1.6 3.2 0.00 0.00 0.00 40 1090.9
20260502194505 16 202 3.2 4.8 0.00 0.00 0.00 40 1081.6
20260502194005 16 180 4.8 4.8 0.00 0.00 0.00 40 1027.1
20260502193654 17 180 1.6 1.6 0.00 0.00 0.00 39 1090.9
20260502193505 17 180 1.6 1.6 0.00 0.00 0.00 39 1090.9
20260502193005 17 135 0.0 0.0 0.00 0.00 0.00 39 1094.1
20260502192505 17 135 0.0 0.0 0.00 0.00 0.00 38 997.9
20260502192105 17 135 0.0 1.6 0.00 0.00 0.00 37 1087.8
20260502192005 17 135 0.0 1.6 0.00 0.00 0.00 37 1097.2
20260502191630 17 157 0.0 1.6 0.00 0.00 0.00 36 1097.2
20260502191505 17 157 0.0 1.6 0.00 0.00 0.00 36 1097.2
20260502191005 18 157 0.0 1.6 0.00 0.00 0.00 36 988.5
20260502190505 18 157 0.0 0.0 0.00 0.00 0.00 35 1046.0
20260502190005 18 157 0.0 0.0 0.00 0.00 0.00 34 1007.2
20260502185512 18 157 0.0 0.0 0.00 0.00 0.00 34
20260502185505 18 157 0.0 0.0 0.00 0.00 0.00 34 1017.3
20260502185005 19 157 0.0 1.6 0.00 0.00 0.00 33 1097.2
20260502184805 19 157 0.0 3.2 0.00 0.00 0.00 32 1075.2
20260502184506 20 202 0.0 3.2 0.00 0.00 0.00 32 1033.4
20260502184006 20 202 1.6 4.8 0.00 0.00 0.00 32 1087.8
20260502183506 20 247 3.2 4.8 0.00 0.00 0.00 31 1087.8
20260502183006 20 225 3.2 6.4 0.00 0.00 0.00 31 1004.1
20260502182506 20 225 3.2 4.8 0.00 0.00 0.00 30 1033.4
20260502182006 21 225 3.2 6.4 0.00 0.00 0.00 30 1072.1
20260502181505 21 225 6.4 6.4 0.00 0.00 0.00 30 1019.8
20260502181006 21 225 3.2 6.4 0.00 0.00 0.00 29 1033.4
20260502180506 22 247 4.8 6.4 0.00 0.00 0.00 29 1010.4
20260502170506 25 292 4.8 11.3 0.00 0.00 0.00 24 1007.3
20260502164006 26 202 4.8 14.5 0.00 0.00 0.00 24 1004.1
20260502163605 26 270 12.9 17.7 0.00 0.00 0.00 24 1015.1
20260502163506 26 270 6.4 17.7 0.00 0.00 0.00 24 997.9
20260502163006 26 247 8.0 14.5 0.00 0.00 0.00 24 1042.8
20260502162506 26 270 9.7 14.5 0.00 0.00 0.00 24 968.6
20260502162012 26 270 6.4 11.3 0.00 0.00 0.00 24 1039.7
20260502162006 26 270 6.4 11.3 0.00 0.00 0.00 24 1039.7
20260502161506 26 247 6.4 14.5 0.00 0.00 0.00 24 1090.9
20260502161006 26 247 12.9 16.1 0.00 0.00 0.00 24 1013.5
20260502160506 26 270 11.3 19.3 0.00 0.00 0.00 24 968.6
20260502160305 27 270 6.4 19.3 0.00 0.00 0.00 24 1056.1
20260502152006 26 292 0.0 16.1 0.00 0.00 0.00 23 1007.3
20260502151506 26 0 3.2 6.4 0.00 0.00 0.00 23 1019.4
20260502151006 26 0 3.2 8.0 0.00 0.00 0.00 22 997.9
20260502150506 27 337 6.4 16.1 0.00 0.00 0.00 22 1046.0
20260502130506 28 247 6.4 11.3 0.00 0.00 0.00 23 1075.3
20260502123506 27 292 16.1 16.1 0.00 0.00 0.00 24 1037.5
20260502123006 27 202 0.0 24.1 0.00 0.00 0.00 24 1042.8
20260502122506 27 225 1.6 19.3 0.00 0.00 0.00 25 1087.8
20260502122006 27 157 9.7 17.7 0.00 0.00 0.00 24 1033.3
20260502121506 27 270 3.2 14.5 0.00 0.00 0.00 23 1094.1
20260502121205 27 202 3.2 14.5 0.00 0.00 0.00 23 1030.2
20260502121006 27 270 9.7 9.7 0.00 0.00 0.00 23 1087.8
20260502120506 27 202 3.2 14.5 0.00 0.00 0.00 25 1062.6
20260502115506 28 337 3.2 14.5 0.00 0.00 0.00 24 1075.3
20260502115006 28 157 3.2 16.1 0.00 0.00 0.00 25 1042.8
20260502114506 28 202 16.1 16.1 0.00 0.00 0.00 25 1039.7
20260502114006 27 270 11.3 12.9 0.00 0.00 0.00 24 1078.3
20260502113905 27 202 12.9 12.9 0.00 0.00 0.00 24 1087.8
20260502113506 27 202 4.8 9.7 0.00 0.00 0.00 24 1037.5
20260502113006 27 270 3.2 8.0 0.00 0.00 0.00 24 1050.1
20260502112506 27 315 4.8 16.1 0.00 0.00 0.00 24 1065.8
20260502112006 27 292 1.6 8.0 0.00 0.00 0.00 24 991.6
20260502111506 27 247 8.0 14.5 0.00 0.00 0.00 25 1059.5
20260502111006 27 157 3.2 16.1 0.00 0.00 0.00 25 1069.0
20260502110605 27 202 1.6 20.9 0.00 0.00 0.00 25 1039.7
20260502110506 27 225 1.6 20.9 0.00 0.00 0.00 25 1075.2
20260502110006 27 292 1.6 19.3 0.00 0.00 0.00 26 1084.6
20260502105506 26 202 6.4 12.9 0.00 0.00 0.00 26 1075.2
20260502105006 26 270 16.1 17.7 0.00 0.00 0.00 27 1046.9
20260502104506 26 292 3.2 24.1 0.00 0.00 0.00 27 1059.5
20260502104006 25 202 16.1 22.5 0.00 0.00 0.00 26 1036.6
20260502103506 25 292 6.4 16.1 0.00 0.00 0.00 26 1053.2
20260502103305 25 247 3.2 16.1 0.00 0.00 0.00 26 1065.8
20260502103007 25 292 6.4 19.3 0.00 0.00 0.00 26 1053.2
20260502102506 26 292 17.7 17.7 0.00 0.00 0.00 26 1059.5
20260502102006 26 157 1.6 16.1 0.00 0.00 0.00 27 1065.8
20260502101506 26 270 16.1 20.9 0.00 0.00 0.00 27 1053.2
20260502101006 25 202 4.8 16.1 0.00 0.00 0.00 27 1065.8
20260502100506 25 337 3.2 9.7 0.00 0.00 0.00 27 1062.7
20260502091506 25 202 6.4 27.4 0.00 0.00 0.00 27 1020.8
20260502091007 25 225 8.0 17.7 0.00 0.00 0.00 27 1053.2
20260502090507 26 247 17.7 22.5 0.00 0.00 0.00 27 1024.0
20260502071506 32 225 12.9 12.9 0.00 0.00 0.00 25 1072.1
20260502071007 32 202 4.8 12.9 0.00 0.00 0.00 25 1075.3
20260502070507 31 202 4.8 11.3 0.00 0.00 0.00 26 1062.7
20260502070007 31 247 9.7 9.7 0.00 0.00 0.00 26 1062.7
20260502065507 30 225 4.8 14.5 0.00 0.00 0.00 26 1050.1
20260502065008 30 225 8.0 16.1 0.00 0.00 0.00 26 1053.2
20260502064507 31 202 9.7 16.1 0.00 0.00 0.00 26 1072.1
20260502064206 31 202 14.5 14.5 0.00 0.00 0.00 27 1056.4
20260502064007 30 180 6.4 9.7 0.00 0.00 0.00 27 1069.0
20260502063507 31 270 8.0 11.3 0.00 0.00 0.00 27 1027.1
20260502063007 31 270 6.4 11.3 0.00 0.00 0.00 27 1068.9
20260502062515 31 180 6.4 12.9 0.00 0.00 0.00 27
20260502062507 31 180 6.4 12.9 0.00 0.00 0.00 27 1062.7
20260502062007 31 202 8.0 11.3 0.00 0.00 0.00 27 1065.8
20260502061507 31 157 4.8 9.7 0.00 0.00 0.00 27 1068.9
20260502061007 31 202 9.7 9.7 0.00 0.00 0.00 28 1062.7
20260502060906 31 202 6.4 6.4 0.00 0.00 0.00 28 1069.0
20260502060507 30 157 3.2 4.8 0.00 0.00 0.00 28 1062.7
20260502060007 29 180 3.2 4.8 0.00 0.00 0.00 29 1062.7
20260502055507 29 180 0.0 4.8 0.00 0.00 0.00 29 1069.0
20260502055007 28 225 3.2 4.8 0.00 0.00 0.00 30 1050.1
20260502054507 28 247 3.2 4.8 0.00 0.00 0.00 30 1068.9
20260502054007 28 202 4.8 6.4 0.00 0.00 0.00 30 1026.0
20260502053606 28 157 4.8 4.8 0.00 0.00 0.00 31 1062.7
20260502053515 28 247 3.2 6.4 0.00 0.00 0.00 31 1056.4
20260502053507 28 247 3.2 6.4 0.00 0.00 0.00 31 1056.4
20260502053007 27 180 0.0 6.4 0.00 0.00 0.00 31 1040.6
20260502052507 27 157 3.2 11.3 0.00 0.00 0.00 31 1065.8
20260502052007 27 225 4.8 6.4 0.00 0.00 0.00 33 1065.8
20260502051507 26 180 3.2 8.0 0.00 0.00 0.00 34 1037.4
20260502051007 26 202 1.6 6.4 0.00 0.00 0.00 35 1069.0
20260502050507 26 202 1.6 6.4 0.00 0.00 0.00 36 1053.2
20260502050306 25 180 0.0 6.4 0.00 0.00 0.00 37 1037.4
20260502050007 25 157 3.2 6.4 0.00 0.00 0.00 37 1018.5
20260502045507 24 180 3.2 3.2 0.00 0.00 0.00 39 1047.0
20260502045007 23 112 0.0 3.2 0.00 0.00 0.00 40 1021.7
20260502044507 22 180 1.6 4.8 0.00 0.00 0.00 42 1059.5
20260502044007 21 157 0.0 1.6 0.00 0.00 0.00 44 1045.2
20260502043507 20 90 0.0 1.6 0.00 0.00 0.00 46 1050.1
20260502043006 18 112 0.0 3.2 0.00 0.00 0.00 49 1053.2
20260502042507 17 157 3.2 3.2 0.00 0.00 0.00 52 1043.8
20260502042007 16 135 0.0 1.6 0.00 0.00 0.00 56 1034.3
20260502041507 15 135 0.0 1.6 0.00 0.00 0.00 60 1034.3
20260502041007 13 112 0.0 1.6 0.00 0.00 0.00 66 1046.9
20260502040507 12 112 0.0 1.6 0.00 0.00 0.00 70 1015.3
20260502040007 11 112 1.6 1.6 0.00 0.00 0.00 75 1026.4
20260502035706 10 112 0.0 0.0 0.00 0.00 0.00 77 1037.5
20260502035507 9 112 0.0 1.6 0.00 0.00 0.00 77 1034.3
20260502035007 8 67 0.0 1.6 0.00 0.00 0.00 77 1021.7
20260502034507 6 112 1.6 3.2 0.00 0.00 0.00 75 1024.8
20260502034007 6 112 0.0 0.0 0.00 0.00 0.00 74 1031.1
20260502033507 5 135 0.0 1.6 0.00 0.00 0.00 74 1037.5
20260502033007 5 112 0.0 0.0 0.00 0.00 0.00 74 1012.2
20260502032507 5 112 0.0 0.0 0.00 0.00 0.00 74 1046.9
20260502032406 5 112 0.0 0.0 0.00 0.00 0.00 74 1034.3
20260502032007 5 90 0.0 0.0 0.00 0.00 0.00 74 1024.9
20260502031507 5 135 0.0 0.0 0.00 0.00 0.00 74 1040.6
20260502031007 5 135 0.0 0.0 0.00 0.00 0.00 74 1043.8
20260502030507 5 67 0.0 0.0 0.00 0.00 0.00 74 1037.4
20260502030007 5 157 0.0 0.0 0.00 0.00 0.00 74 1043.8
20260502025507 5 112 0.0 0.0 0.00 0.00 0.00 74 1043.8
20260502025106 5 112 0.0 0.0 0.00 0.00 0.00 74 1034.3
20260502025007 5 112 0.0 0.0 0.00 0.00 0.00 73 1028.0
20260502024507 5 112 0.0 1.6 0.00 0.00 0.00 73 1040.6
20260502024007 5 112 0.0 0.0 0.00 0.00 0.00 73 1040.6
20260502023507 5 112 0.0 1.6 0.00 0.00 0.00 74 1028.0
20260502023007 5 112 0.0 0.0 0.00 0.00 0.00 74 1037.4
20260502022507 5 135 0.0 0.0 0.00 0.00 0.00 74 1034.3